[[{"header":{"parameterUnit":"m.s-1","parameterCategory":2,"la1":30.2991,"la2":30.254,"lo1":-89.0895,"lo2":-89.0444,"dy":0.0017,"dx":0.0017,"nx":28,"ny":28,"refTime":"2025-12-11T09:00:00:Z","depth":"0","parameterNumber":2,"parameterNumberName":"U-component_of_CURRENTS"},"data":[0,0,0,0,0,0,0,0,0,0,0,0,0,0,0,0,0,0,0,0,0,0,0,0,0,0,0,0,0,0,0,0,0,0,0,0,0,0,0,0,0,0,0,0,0,0,0,0,0,0,0,0,0,0,0,0,0,0,0.1741,0.1741,0,0.169,0.169,0.169,0.1593,0.1591,0.1589,0.1586,0.1659,0.1663,0.1667,0,0,0,0,0,0,0,0,0,0,0,0,0,0.1694,0.1696,0.1742,0.1741,0.174,0.169,0.169,0.169,0.1594,0.1591,0.1588,0.1585,0.1657,0.1662,0.1667,0,0,0,0,0,0,0,0,0,0,0,0,0,0.169,0.1696,0.1742,0.1683,0.1676,0.169,0.169,0.169,0.1594,0.1591,0.1587,0.1584,0.1656,0.1662,0.1668,0.1773,0,0,0.1686,0.1689,0,0,0,0,0,0,0,0,0.169,0.1692,0.1692,0.1687,0.168,0.1641,0.1699,0.1722,0.1595,0.163,0.1586,0.1583,0.1664,0.1669,0.1671,0.1776,0.1779,0.1687,0.169,0.1693,0.1695,0,0,0,0,0,0,0,0.1691,0.1693,0.1725,0.1691,0.1684,0.1637,0.1634,0.1703,0.1672,0.1626,0.1618,0.1607,0.1662,0.1666,0.1673,0.178,0.1686,0.1692,0.1695,0.1698,0.1975,0.1978,0,0,0,0,0,0,0.1697,0.1695,0.1727,0.1723,0.1672,0.164,0.1637,0.166,0.1668,0.1664,0.161,0.1603,0.1657,0.1666,0.1675,0.1765,0.1693,0.1698,0.1702,0.1971,0.1975,0.1979,0,0,0,0,0,0,0.1697,0.1702,0.1729,0.1702,0.1701,0.1645,0.1672,0.1661,0.166,0.1654,0.1652,0.1618,0.1655,0.1666,0.1744,0.1768,0.1701,0.1707,0.1966,0.1972,0.1977,0.1969,0,0,0,0,0,0,0.1696,0.1703,0.173,0.1704,0.1703,0.1745,0.1674,0.1662,0.1657,0.1647,0.1662,0.1664,0.1653,0.1735,0.175,0.1775,0.1711,0.1962,0.1969,0.1976,0.1965,0.1974,0.1981,0,0,0,0,0,0.1695,0.1734,0.1733,0.1735,0.1741,0.1746,0.1743,0.1692,0.1661,0.1677,0.1688,0.1663,0.1789,0.1744,0.176,0.1787,0.1958,0.1967,0.1975,0.1961,0.1972,0.1981,0,0,0,0,0,0,0.1721,0.1728,0.1724,0.1764,0.1762,0.1728,0.1732,0.1712,0.1733,0.1724,0.1718,0.1725,0.1799,0.1823,0.1772,0.1896,0.187,0.1882,0.1854,0.1864,0.1873,0.18,0.1716,0,0,0,0,0,0.1747,0.1775,0.1775,0.1802,0.181,0.1784,0.1781,0.1754,0.1759,0.1761,0.1768,0.1801,0.1854,0.1878,0.1927,0.2009,0.2006,0.2043,0.2051,0.2057,0.2016,0.2043,0.2047,0.2007,0.2007,0.2007,0,0,0.1756,0.1766,0.1778,0.1809,0.1802,0.1808,0.1774,0.1778,0.1772,0.1777,0.1793,0.1839,0.1888,0.1954,0.1991,0.197,0.2083,0.2068,0.2072,0.2026,0.2051,0.2054,0.2057,0.2013,0.2012,0.2011,0,0,0.1763,0.1812,0.1824,0.1839,0.184,0.1835,0.1845,0.1836,0.1825,0.1872,0.1867,0.192,0.2005,0.2017,0.2043,0.2145,0.2131,0.2188,0.2158,0.2187,0.2188,0.2188,0.2232,0.2237,0.2184,0.2184,0.2184,0,0.1772,0.1791,0.1827,0.1839,0.1835,0.1851,0.1848,0.1864,0.1874,0.1871,0.1878,0.1975,0.2019,0.2073,0.2095,0.2153,0.2173,0.2103,0.2188,0.2189,0.2189,0.2234,0.2239,0.2185,0.2185,0.2185,0.2185,0,0.1771,0.1794,0.1807,0.1828,0.1845,0.1854,0.1873,0.1888,0.1893,0.1893,0.195,0.2014,0.2052,0.2103,0.2124,0.2167,0.2186,0.2194,0.2137,0.2191,0.2238,0.2243,0.2186,0.2185,0.2185,0.2185,0,0,0.1744,0.1795,0.1789,0.1796,0.1836,0.1843,0.1861,0.1869,0.1853,0.1912,0.19,0.2008,0.2028,0.2061,0.2113,0.2136,0.2185,0.2159,0.216,0.2158,0.226,0.2243,0.2247,0.2202,0.2202,0.2202,0.2305,0,0.1715,0.1731,0.1758,0.1762,0.1776,0.1805,0.1802,0.182,0.1847,0.1857,0.1929,0.1966,0.2023,0.2046,0.2083,0.2161,0.2191,0.2156,0.2246,0.2248,0.2187,0.2248,0.2245,0.2332,0.2309,0.231,0.231,0,0.1669,0.1696,0.1695,0.1715,0.1717,0.1721,0.1714,0.1722,0.1757,0.1769,0.1825,0.1887,0.1963,0.1993,0.2121,0.21,0.2166,0.2219,0.2224,0.2193,0.2237,0.2273,0.2341,0.2299,0.2317,0.2317,0.2316,0,0.1597,0.1632,0.1626,0.1642,0.1678,0.1663,0.1672,0.1688,0.1686,0.1724,0.1729,0.183,0.1887,0.198,0.2125,0.212,0.225,0.2265,0.2311,0.2313,0.2314,0.2314,0.23,0.2318,0.2317,0.2317,0.2317,0,0.1545,0.1537,0.1595,0.16,0.1579,0.1614,0.1589,0.1591,0.1607,0.1615,0.1689,0.1722,0.188,0.1992,0.2105,0.2235,0.225,0.2295,0.2327,0.2322,0.2321,0.2286,0.2264,0.2321,0.232,0.2319,0.2319,0,0.1461,0.1496,0.1493,0.1531,0.1547,0.1526,0.1555,0.1538,0.1544,0.1559,0.1573,0.1662,0.1804,0.1967,0.2135,0.2209,0.2277,0.2366,0.2357,0.2383,0.2351,0.2331,0.2153,0.2115,0.2419,0.242,0.242,0,0.1411,0.141,0.1446,0.1435,0.1453,0.1462,0.146,0.1498,0.151,0.1533,0.1545,0.1657,0.1755,0.199,0.2166,0.2357,0.2283,0.2411,0.2379,0.233,0.2334,0.2152,0.212,0.2418,0.2418,0.2418,0.2418,0,0.132,0.1328,0.1331,0.134,0.1342,0.1366,0.1396,0.1406,0.145,0.1469,0.1505,0.157,0.1793,0.1981,0.2204,0.2327,0.2287,0.2412,0.237,0.2317,0.211,0.2098,0.2381,0.2418,0.2418,0.2418,0.2418,0.2418,0.1211,0.1211,0.1219,0.1227,0.1228,0.1255,0.1274,0.1331,0.1361,0.1407,0.1482,0.1573,0.1816,0.2133,0.2233,0.2375,0.2281,0.237,0.2354,0.2174,0.2093,0.2363,0.2419,0.2419,0.2419,0.2419,0.2419,0,0.1096,0.113,0.1117,0.1125,0.1109,0.1157,0.1215,0.125,0.1306,0.1395,0.1459,0.1659,0.1876,0.2079,0.231,0.2318,0.2226,0.2296,0.2076,0.2058,0.2344,0.2302,0.2323,0.2323,0.2323,0.2323,0.2323,0.2323,0.1017,0.1021,0.1069,0.1029,0.1027,0.1039,0.1073,0.1145,0.1235,0.1356,0.1455,0.1542,0.1734,0.2031,0.2174,0.221,0.2069,0.1989,0.1942,0.2213,0.2218,0.2223,0.2177,0.2171,0.2171,0.1589,0.1585,0.1583]},{"header":{"parameterUnit":"m.s-1","parameterCategory":2,"la1":30.2991,"la2":30.254,"lo1":-89.0895,"lo2":-89.0444,"dy":0.0017,"dx":0.0017,"nx":28,"ny":28,"refTime":"2025-12-11T09:00:00:Z","depth":"0","parameterNumber":3,"parameterNumberName":"V-component_of_CURRENTS"},"data":[0,0,0,0,0,0,0,0,0,0,0,0,0,0,0,0,0,0,0,0,0,0,0,0,0,0,0,0,0,0,0,0,0,0,0,0,0,0,0,0,0,0,0,0,0,0,0,0,0,0,0,0,0,0,0,0,0,0,0.0538,0.0539,0,0.0641,0.0643,0.0644,0.0685,0.0684,0.0684,0.0684,0.0779,0.0781,0.0784,0,0,0,0,0,0,0,0,0,0,0,0,0,0.0454,0.0454,0.0538,0.0539,0.0541,0.0641,0.0643,0.0644,0.0685,0.0684,0.0684,0.0684,0.0778,0.0781,0.0784,0,0,0,0,0,0,0,0,0,0,0,0,0,0.0517,0.0455,0.0538,0.0572,0.0577,0.0641,0.0643,0.0645,0.0685,0.0684,0.0684,0.0683,0.0776,0.0781,0.0785,0.0821,0,0,0.0798,0.08,0,0,0,0,0,0,0,0,0.0514,0.052,0.0566,0.057,0.0575,0.0649,0.0648,0.0703,0.0685,0.0644,0.0684,0.0683,0.0734,0.0742,0.0764,0.0826,0.083,0.0798,0.0801,0.0803,0.0804,0,0,0,0,0,0,0,0.0509,0.0517,0.058,0.0567,0.0573,0.0609,0.0617,0.0659,0.0691,0.0648,0.0651,0.0662,0.0737,0.076,0.0766,0.0831,0.0798,0.0802,0.0804,0.0806,0.096,0.0961,0,0,0,0,0,0,0.0492,0.0512,0.0577,0.0583,0.0542,0.0611,0.062,0.0626,0.0691,0.0701,0.0662,0.0663,0.0753,0.0761,0.077,0.08,0.0803,0.0807,0.0809,0.0958,0.096,0.0962,0,0,0,0,0,0,0.0489,0.0496,0.0572,0.055,0.0562,0.0612,0.062,0.0629,0.065,0.0702,0.0711,0.0673,0.0752,0.0764,0.0822,0.0805,0.0808,0.0812,0.0956,0.0959,0.0961,0.0871,0,0,0,0,0,0,0.0486,0.0495,0.0502,0.0548,0.0562,0.0605,0.062,0.0631,0.0657,0.0659,0.0715,0.0723,0.0753,0.0816,0.0827,0.081,0.0816,0.0954,0.0957,0.096,0.0872,0.087,0.0869,0,0,0,0,0,0.0483,0.0512,0.0502,0.051,0.0568,0.0605,0.0616,0.0651,0.0657,0.0668,0.0718,0.0721,0.0841,0.0821,0.0833,0.0817,0.0953,0.0957,0.096,0.0873,0.0871,0.0869,0,0,0,0,0,0,0.0511,0.0519,0.051,0.0546,0.0562,0.0611,0.0639,0.0649,0.0697,0.0703,0.0746,0.0759,0.0799,0.0839,0.0815,0.0878,0.0896,0.0902,0.0826,0.0824,0.0822,0.081,0.0819,0,0,0,0,0,0.0508,0.0512,0.0529,0.0557,0.0563,0.0593,0.0616,0.0628,0.0673,0.0693,0.073,0.0781,0.0825,0.0848,0.0895,0.0933,0.0958,0.0935,0.0933,0.0931,0.0934,0.0948,0.0946,0.0973,0.0973,0.0973,0,0,0.0529,0.0534,0.054,0.0559,0.0579,0.06,0.0607,0.0636,0.0647,0.0697,0.0738,0.0774,0.0837,0.0876,0.0897,0.0903,0.0941,0.0935,0.0932,0.0937,0.0951,0.0948,0.0945,0.0975,0.0975,0.0975,0,0,0.0571,0.057,0.058,0.0586,0.0598,0.0613,0.0614,0.0646,0.0651,0.0691,0.0727,0.0754,0.0833,0.0859,0.0887,0.0909,0.093,0.0929,0.0903,0.0915,0.0911,0.0909,0.0941,0.0942,0.0926,0.0926,0.0926,0,0.0602,0.0605,0.0595,0.0607,0.0619,0.0615,0.0635,0.0643,0.0688,0.0697,0.0697,0.0793,0.082,0.0866,0.0866,0.0896,0.0924,0.0893,0.0906,0.0904,0.0902,0.0937,0.0938,0.0922,0.0923,0.0923,0.0923,0,0.0637,0.0641,0.0655,0.0651,0.0664,0.0681,0.0678,0.0684,0.0684,0.0694,0.0725,0.0761,0.0821,0.0818,0.0845,0.0856,0.0887,0.0893,0.0894,0.0893,0.0931,0.0934,0.0917,0.0918,0.0919,0.092,0,0,0.0694,0.0681,0.068,0.0673,0.0681,0.0693,0.0705,0.0714,0.0723,0.0728,0.0752,0.0777,0.0784,0.0819,0.0839,0.0831,0.0823,0.0853,0.0855,0.0855,0.0872,0.0819,0.0819,0.0828,0.0828,0.0828,0.0902,0,0.0721,0.0733,0.0725,0.074,0.0745,0.0738,0.0745,0.0747,0.0756,0.0776,0.077,0.0807,0.0789,0.0812,0.0798,0.083,0.083,0.0804,0.0901,0.0905,0.0831,0.0819,0.0841,0.0902,0.0906,0.0906,0.0907,0,0.0732,0.0743,0.076,0.0751,0.0754,0.0768,0.0777,0.0781,0.0797,0.08,0.0822,0.0844,0.0849,0.0827,0.0849,0.0838,0.0852,0.0855,0.0859,0.0843,0.0858,0.0909,0.0909,0.0875,0.0912,0.0912,0.0911,0,0.0733,0.0749,0.0758,0.0761,0.077,0.0778,0.078,0.0794,0.0792,0.0827,0.0841,0.0867,0.0884,0.0888,0.0898,0.0882,0.0922,0.0909,0.0879,0.0877,0.0932,0.0933,0.0883,0.0921,0.0921,0.0921,0.092,0,0.074,0.0744,0.0757,0.0764,0.0778,0.0778,0.0802,0.0797,0.0814,0.083,0.0851,0.0881,0.0895,0.0927,0.0924,0.0913,0.0951,0.0872,0.0883,0.0904,0.0902,0.0904,0.0887,0.0924,0.0923,0.0922,0.0922,0,0.073,0.0736,0.074,0.076,0.0774,0.0774,0.0801,0.0819,0.0818,0.0847,0.0857,0.0897,0.093,0.0949,0.0982,0.0944,0.0911,0.094,0.0968,0.0977,0.086,0.0838,0.0745,0.0723,0.09,0.0899,0.0898,0,0.0721,0.0729,0.0739,0.0746,0.0761,0.0785,0.0809,0.0819,0.0851,0.0861,0.0882,0.0919,0.0975,0.0994,0.0962,0.096,0.0907,0.0943,0.0883,0.0844,0.0831,0.0747,0.073,0.0947,0.0946,0.0946,0.0946,0,0.0729,0.0723,0.0727,0.0743,0.0767,0.0803,0.0844,0.0863,0.0883,0.0914,0.0951,0.0989,0.0997,0.1023,0.0995,0.0968,0.0876,0.093,0.0897,0.0853,0.0758,0.0747,0.0921,0.0943,0.0943,0.0943,0.0943,0.0944,0.0721,0.0721,0.0724,0.0736,0.0762,0.0812,0.0844,0.0905,0.0953,0.1002,0.1037,0.1118,0.1142,0.1102,0.0996,0.0864,0.0829,0.0838,0.082,0.074,0.0683,0.0832,0.0843,0.0842,0.0842,0.0842,0.0842,0,0.0732,0.0739,0.0733,0.0747,0.0771,0.0794,0.0864,0.091,0.0988,0.1082,0.1148,0.1318,0.1255,0.1153,0.0999,0.0838,0.0733,0.076,0.0691,0.0684,0.0852,0.0817,0.0812,0.0812,0.0812,0.0812,0.0812,0.0812,0.0738,0.0744,0.0739,0.0765,0.0776,0.0827,0.0863,0.094,0.103,0.1223,0.1378,0.1506,0.159,0.1201,0.0917,0.0816,0.0683,0.0598,0.0549,0.0723,0.073,0.0736,0.0698,0.0668,0.0668,0.0387,0.0385,0.0384]}],[{"header":{"parameterUnit":"m.s-1","parameterCategory":2,"la1":30.2991,"la2":30.254,"lo1":-89.0895,"lo2":-89.0444,"dy":0.0017,"dx":0.0017,"nx":28,"ny":28,"refTime":"2025-12-11T09:00:00:Z","depth":"2","parameterNumber":2,"parameterNumberName":"U-component_of_CURRENTS"},"data":[0,0,0,0,0,0,0,0,0,0,0,0,0,0,0,0,0,0,0,0,0,0,0,0,0,0,0,0,0,0,0,0,0,0,0,0,0,0,0,0,0,0,0,0,0,0,0,0,0,0,0,0,0,0,0,0,0,0,-0.0956,-0.0955,0,-0.0899,-0.0899,-0.0899,-0.076,-0.0757,-0.0753,-0.075,-0.0669,-0.067,-0.0671,0,0,0,0,0,0,0,0,0,0,0,0,0,-0.1031,-0.103,-0.0956,-0.0955,-0.0954,-0.0899,-0.0899,-0.0898,-0.076,-0.0756,-0.0752,-0.0749,-0.0669,-0.067,-0.0671,0,0,0,0,0,0,0,0,0,0,0,0,0,-0.0992,-0.103,-0.0956,-0.0875,-0.0867,-0.0899,-0.0899,-0.0898,-0.0761,-0.0756,-0.0751,-0.0747,-0.0668,-0.067,-0.0671,-0.0777,0,0,-0.0675,-0.0675,0,0,0,0,0,0,0,0,-0.0995,-0.099,-0.0888,-0.0881,-0.0872,-0.0828,-0.0895,-0.0855,-0.0762,-0.0806,-0.075,-0.0744,-0.0721,-0.0718,-0.0724,-0.0774,-0.077,-0.0675,-0.0676,-0.0676,-0.0677,0,0,0,0,0,0,0,-0.0997,-0.0992,-0.0937,-0.0888,-0.0878,-0.0871,-0.086,-0.0888,-0.0794,-0.0802,-0.079,-0.0779,-0.0716,-0.0723,-0.0721,-0.0769,-0.0675,-0.0676,-0.0677,-0.0678,-0.0786,-0.0787,0,0,0,0,0,0,-0.0998,-0.0995,-0.0939,-0.0935,-0.0918,-0.0873,-0.0861,-0.085,-0.0794,-0.078,-0.0784,-0.0773,-0.0723,-0.0719,-0.0717,-0.0692,-0.0676,-0.0678,-0.0678,-0.0783,-0.0786,-0.0788,0,0,0,0,0,0,-0.1,-0.0993,-0.0941,-0.096,-0.0952,-0.0876,-0.0866,-0.0852,-0.0811,-0.078,-0.0765,-0.075,-0.0719,-0.0715,-0.0725,-0.0693,-0.0678,-0.0679,-0.0781,-0.0784,-0.0787,-0.0736,0,0,0,0,0,0,-0.1002,-0.0995,-0.0988,-0.0961,-0.0951,-0.0948,-0.087,-0.0854,-0.0812,-0.0797,-0.0749,-0.0738,-0.0715,-0.0723,-0.0726,-0.0694,-0.0681,-0.0778,-0.0782,-0.0786,-0.0735,-0.0737,-0.0739,0,0,0,0,0,-0.1005,-0.1019,-0.0988,-0.0981,-0.0944,-0.095,-0.0946,-0.0877,-0.0815,-0.0818,-0.0784,-0.0737,-0.0748,-0.0727,-0.073,-0.0697,-0.0777,-0.0781,-0.0786,-0.0734,-0.0737,-0.0739,0,0,0,0,0,0,-0.1053,-0.1005,-0.097,-0.0968,-0.0952,-0.0923,-0.0915,-0.0874,-0.0851,-0.0817,-0.0778,-0.077,-0.076,-0.0769,-0.0746,-0.0749,-0.0751,-0.0756,-0.0711,-0.0713,-0.0715,-0.0713,-0.0682,0,0,0,0,0,-0.1063,-0.1051,-0.1017,-0.1016,-0.1002,-0.0957,-0.0945,-0.09,-0.0877,-0.0856,-0.0819,-0.0797,-0.0799,-0.0783,-0.0794,-0.0811,-0.0804,-0.0795,-0.0797,-0.0797,-0.0805,-0.079,-0.0788,-0.0803,-0.0803,-0.0803,0,0,-0.1083,-0.1055,-0.1047,-0.1025,-0.0997,-0.0998,-0.0936,-0.0914,-0.0901,-0.086,-0.0826,-0.0807,-0.0812,-0.0811,-0.0807,-0.0798,-0.0789,-0.0803,-0.0803,-0.081,-0.0794,-0.0792,-0.079,-0.0807,-0.0806,-0.0806,0,0,-0.113,-0.1088,-0.1093,-0.1077,-0.1035,-0.1017,-0.1005,-0.0959,-0.0916,-0.0916,-0.0866,-0.0837,-0.0845,-0.0821,-0.082,-0.0857,-0.0806,-0.0848,-0.0836,-0.082,-0.0817,-0.0815,-0.0783,-0.0778,-0.0837,-0.0837,-0.0837,0,-0.1152,-0.1142,-0.1102,-0.1101,-0.108,-0.1022,-0.1024,-0.1005,-0.0964,-0.0933,-0.0899,-0.0868,-0.0853,-0.0841,-0.0835,-0.0851,-0.0832,-0.081,-0.0816,-0.0813,-0.0811,-0.078,-0.0775,-0.0835,-0.0836,-0.0836,-0.0836,0,-0.1199,-0.118,-0.1182,-0.1152,-0.1142,-0.1132,-0.1092,-0.1061,-0.0999,-0.0964,-0.092,-0.0901,-0.087,-0.0856,-0.0851,-0.0824,-0.081,-0.0818,-0.0791,-0.0805,-0.0773,-0.0769,-0.0833,-0.0833,-0.0834,-0.0834,0,0,-0.1267,-0.1222,-0.1217,-0.1192,-0.1152,-0.1147,-0.1128,-0.1093,-0.105,-0.1003,-0.0954,-0.0933,-0.0876,-0.0875,-0.0841,-0.0818,-0.0769,-0.0801,-0.0801,-0.0737,-0.0711,-0.0656,-0.0646,-0.076,-0.0759,-0.0759,-0.0684,0,-0.1304,-0.1304,-0.1274,-0.1265,-0.1252,-0.1189,-0.1178,-0.1134,-0.1078,-0.1024,-0.0968,-0.0926,-0.0898,-0.0855,-0.0828,-0.0793,-0.0759,-0.0788,-0.0738,-0.0737,-0.0658,-0.064,-0.0644,-0.0574,-0.068,-0.0679,-0.0679,0,-0.135,-0.1335,-0.1333,-0.1277,-0.1263,-0.1254,-0.1184,-0.1166,-0.1092,-0.104,-0.0976,-0.0928,-0.0874,-0.0854,-0.0784,-0.0795,-0.0751,-0.0724,-0.0721,-0.0687,-0.0674,-0.0588,-0.0562,-0.0671,-0.0672,-0.0672,-0.0673,0,-0.14,-0.1368,-0.1358,-0.1341,-0.129,-0.1259,-0.1225,-0.1157,-0.1122,-0.1039,-0.0994,-0.0928,-0.0875,-0.0831,-0.075,-0.0761,-0.0673,-0.0689,-0.06,-0.0595,-0.0602,-0.0598,-0.0646,-0.0646,-0.0646,-0.0646,-0.0647,0,-0.1446,-0.1434,-0.1367,-0.1362,-0.1326,-0.1277,-0.1232,-0.1182,-0.1114,-0.1066,-0.0994,-0.0939,-0.0864,-0.0795,-0.0746,-0.0641,-0.0665,-0.059,-0.0571,-0.0585,-0.058,-0.0681,-0.0686,-0.0644,-0.0644,-0.0645,-0.0645,0,-0.1511,-0.147,-0.1449,-0.1382,-0.1349,-0.1322,-0.124,-0.1201,-0.1136,-0.1071,-0.1042,-0.0939,-0.0828,-0.0748,-0.0658,-0.0619,-0.0546,-0.0505,-0.051,-0.0493,-0.0481,-0.0486,-0.0408,-0.0406,-0.0403,-0.0402,-0.04,0,-0.1548,-0.1542,-0.1468,-0.143,-0.1391,-0.1335,-0.1284,-0.1213,-0.1171,-0.1066,-0.1033,-0.0905,-0.0799,-0.0636,-0.0533,-0.0419,-0.0451,-0.0373,-0.0407,-0.0467,-0.0457,-0.0464,-0.0471,-0.0392,-0.0391,-0.039,-0.0389,0,-0.1603,-0.1567,-0.1537,-0.1459,-0.1394,-0.1336,-0.1259,-0.1236,-0.1146,-0.1083,-0.0967,-0.0879,-0.0699,-0.0538,-0.0383,-0.035,-0.0395,-0.0343,-0.0404,-0.0448,-0.0445,-0.0437,-0.0446,-0.0378,-0.0379,-0.038,-0.038,-0.0381,-0.1615,-0.1597,-0.1523,-0.145,-0.1383,-0.1294,-0.1229,-0.1162,-0.1077,-0.0933,-0.0907,-0.0715,-0.0639,-0.0349,-0.0288,-0.0228,-0.0262,-0.0275,-0.0282,-0.0289,-0.0297,-0.029,-0.0194,-0.0194,-0.0194,-0.0194,-0.0194,0,-0.1578,-0.1545,-0.1499,-0.1384,-0.1305,-0.1268,-0.1167,-0.1089,-0.0965,-0.084,-0.0714,-0.0519,-0.0386,-0.028,-0.015,-0.0129,-0.0184,-0.0147,-0.0216,-0.0227,-0.0237,-0.0246,-0.0127,-0.0126,-0.0125,-0.0125,0,0,-0.1539,-0.1473,-0.1444,-0.1296,-0.1227,-0.1077,-0.1003,-0.0902,-0.0788,-0.0588,-0.0428,-0.0379,-0.0295,-0.0187,-0.0183,-0.0112,-0.0186,-0.0135,-0.0199,-0.0296,-0.0305,-0.0327,-0.0354,0,0,0,0,0]},{"header":{"parameterUnit":"m.s-1","parameterCategory":2,"la1":30.2991,"la2":30.254,"lo1":-89.0895,"lo2":-89.0444,"dy":0.0017,"dx":0.0017,"nx":28,"ny":28,"refTime":"2025-12-11T09:00:00:Z","depth":"2","parameterNumber":3,"parameterNumberName":"V-component_of_CURRENTS"},"data":[0,0,0,0,0,0,0,0,0,0,0,0,0,0,0,0,0,0,0,0,0,0,0,0,0,0,0,0,0,0,0,0,0,0,0,0,0,0,0,0,0,0,0,0,0,0,0,0,0,0,0,0,0,0,0,0,0,0,-0.0692,-0.0693,0,-0.0721,-0.0721,-0.0721,-0.0744,-0.0744,-0.0744,-0.0745,-0.0734,-0.0733,-0.0732,0,0,0,0,0,0,0,0,0,0,0,0,0,-0.0608,-0.0609,-0.0692,-0.0693,-0.0693,-0.0721,-0.0721,-0.0721,-0.0743,-0.0744,-0.0744,-0.0745,-0.0734,-0.0733,-0.0732,0,0,0,0,0,0,0,0,0,0,0,0,0,-0.064,-0.061,-0.0692,-0.0709,-0.071,-0.0721,-0.0721,-0.0721,-0.0743,-0.0744,-0.0744,-0.0745,-0.0734,-0.0733,-0.0732,-0.0716,0,0,-0.0729,-0.0729,0,0,0,0,0,0,0,0,-0.0638,-0.0643,-0.0706,-0.0708,-0.071,-0.073,-0.0687,-0.0718,-0.0743,-0.0729,-0.0745,-0.0745,-0.0729,-0.0729,-0.0732,-0.0715,-0.0715,-0.0729,-0.0729,-0.0728,-0.0728,0,0,0,0,0,0,0,-0.0636,-0.0641,-0.0702,-0.0706,-0.0709,-0.0698,-0.0703,-0.0693,-0.0724,-0.0731,-0.0733,-0.0738,-0.073,-0.0732,-0.0731,-0.0715,-0.0729,-0.0728,-0.0728,-0.0728,-0.0671,-0.067,0,0,0,0,0,0,-0.0638,-0.064,-0.0701,-0.0703,-0.0676,-0.0699,-0.0705,-0.0722,-0.0725,-0.0727,-0.0737,-0.0739,-0.0734,-0.0732,-0.0731,-0.0706,-0.0728,-0.0727,-0.0727,-0.0672,-0.067,-0.0669,0,0,0,0,0,0,-0.0636,-0.0643,-0.07,-0.0672,-0.0679,-0.0701,-0.0719,-0.0722,-0.0736,-0.0731,-0.0732,-0.0749,-0.0734,-0.0732,-0.0729,-0.0706,-0.0727,-0.0726,-0.0673,-0.0671,-0.067,-0.0658,0,0,0,0,0,0,-0.0633,-0.0643,-0.0657,-0.0673,-0.0681,-0.0707,-0.0719,-0.0723,-0.0739,-0.0741,-0.0741,-0.074,-0.0734,-0.073,-0.0728,-0.0705,-0.0725,-0.0674,-0.0672,-0.067,-0.066,-0.0657,-0.0654,0,0,0,0,0,-0.063,-0.0643,-0.0658,-0.0665,-0.07,-0.0707,-0.0709,-0.0725,-0.0739,-0.074,-0.0744,-0.0741,-0.0717,-0.073,-0.0727,-0.0702,-0.0675,-0.0673,-0.067,-0.0661,-0.0657,-0.0654,0,0,0,0,0,0,-0.0609,-0.0647,-0.0663,-0.0687,-0.0698,-0.0711,-0.0718,-0.073,-0.0736,-0.0741,-0.0739,-0.0738,-0.0722,-0.0716,-0.073,-0.0679,-0.069,-0.0687,-0.0684,-0.068,-0.0677,-0.0662,-0.0725,0,0,0,0,0,-0.0613,-0.0636,-0.0661,-0.0678,-0.0688,-0.0706,-0.0713,-0.0723,-0.073,-0.0735,-0.0738,-0.0729,-0.0708,-0.07,-0.0687,-0.0667,-0.0656,-0.0645,-0.0642,-0.0639,-0.0624,-0.06,-0.0594,-0.0662,-0.0662,-0.0662,0,0,-0.0605,-0.0632,-0.0643,-0.0675,-0.0689,-0.0685,-0.0711,-0.0723,-0.0712,-0.073,-0.0723,-0.0724,-0.0701,-0.0677,-0.0667,-0.0671,-0.0615,-0.0637,-0.0635,-0.062,-0.0597,-0.0591,-0.0585,-0.0661,-0.0661,-0.0661,0,0,-0.0585,-0.0631,-0.0633,-0.0644,-0.0667,-0.0679,-0.0684,-0.0704,-0.0709,-0.0707,-0.0706,-0.0693,-0.0682,-0.0651,-0.0633,-0.0603,-0.0603,-0.0603,-0.0572,-0.055,-0.0544,-0.0539,-0.0523,-0.0516,-0.0598,-0.0598,-0.0598,0,-0.0569,-0.0585,-0.0631,-0.0628,-0.0631,-0.0674,-0.066,-0.0666,-0.068,-0.0673,-0.0701,-0.0666,-0.0657,-0.0598,-0.0591,-0.0593,-0.0592,-0.0591,-0.0547,-0.0541,-0.0536,-0.052,-0.0513,-0.0597,-0.0597,-0.0597,-0.0597,0,-0.0539,-0.0554,-0.0556,-0.0571,-0.058,-0.058,-0.0597,-0.0605,-0.0629,-0.063,-0.0606,-0.0605,-0.058,-0.0573,-0.0575,-0.0523,-0.0539,-0.0551,-0.0559,-0.0529,-0.0514,-0.0507,-0.0596,-0.0596,-0.0596,-0.0597,0,0,-0.0501,-0.0527,-0.0529,-0.0534,-0.0552,-0.0562,-0.0543,-0.0537,-0.0529,-0.0543,-0.052,-0.049,-0.051,-0.0489,-0.0491,-0.0472,-0.0443,-0.0502,-0.0501,-0.0489,-0.0405,-0.0364,-0.0353,-0.0461,-0.046,-0.0459,-0.0412,0,-0.0461,-0.0453,-0.0469,-0.0458,-0.0462,-0.0485,-0.0468,-0.0469,-0.0481,-0.0476,-0.0464,-0.0451,-0.047,-0.0472,-0.0451,-0.0453,-0.0423,-0.0454,-0.0431,-0.043,-0.0401,-0.0342,-0.0407,-0.0367,-0.0405,-0.0404,-0.0403,0,-0.0428,-0.0433,-0.0416,-0.0427,-0.0428,-0.0424,-0.0426,-0.0414,-0.0402,-0.0408,-0.0391,-0.0402,-0.0368,-0.0403,-0.0364,-0.0394,-0.0388,-0.0388,-0.0387,-0.0343,-0.0374,-0.04,-0.0352,-0.0391,-0.0392,-0.0393,-0.0394,0,-0.0416,-0.0403,-0.0397,-0.0399,-0.0406,-0.0401,-0.0405,-0.0398,-0.0392,-0.0373,-0.0378,-0.0341,-0.0345,-0.0326,-0.0331,-0.0354,-0.0299,-0.0328,-0.0273,-0.0271,-0.0313,-0.0316,-0.0276,-0.0276,-0.0276,-0.0276,-0.0276,0,-0.0395,-0.0394,-0.0398,-0.0405,-0.0402,-0.0402,-0.0395,-0.0393,-0.0376,-0.0367,-0.0356,-0.0342,-0.0333,-0.0311,-0.0307,-0.0262,-0.0274,-0.0241,-0.0243,-0.031,-0.0314,-0.0327,-0.0334,-0.0274,-0.0275,-0.0275,-0.0275,0,-0.0412,-0.0404,-0.0409,-0.0408,-0.0409,-0.0421,-0.0418,-0.0408,-0.0392,-0.0381,-0.0378,-0.0347,-0.0308,-0.0284,-0.0248,-0.023,-0.0192,-0.0169,-0.0247,-0.0256,-0.0187,-0.0193,-0.0096,-0.0094,-0.0092,-0.009,-0.0089,0,-0.0426,-0.0429,-0.0435,-0.0446,-0.0455,-0.0459,-0.0458,-0.0432,-0.0419,-0.0384,-0.0378,-0.0331,-0.0281,-0.0199,-0.0167,-0.0111,-0.0131,-0.0132,-0.016,-0.015,-0.0162,-0.0171,-0.018,-0.0227,-0.0227,-0.0227,-0.0227,0,-0.0462,-0.0465,-0.0479,-0.0496,-0.0505,-0.0493,-0.0488,-0.0474,-0.0436,-0.0393,-0.0333,-0.0282,-0.0216,-0.0168,-0.0097,-0.0087,-0.0144,-0.0125,-0.0094,-0.0249,-0.0265,-0.028,-0.0286,-0.0227,-0.0227,-0.0227,-0.0227,-0.0227,-0.0502,-0.0523,-0.0539,-0.0553,-0.0548,-0.0523,-0.0498,-0.0459,-0.0401,-0.0321,-0.03,-0.0223,-0.0239,-0.0127,-0.0106,-0.0093,-0.0076,-0.0113,-0.0117,-0.012,-0.013,-0.0141,-0.0081,-0.008,-0.008,-0.0079,-0.0079,0,-0.0558,-0.0571,-0.0589,-0.0592,-0.0578,-0.0558,-0.0506,-0.0454,-0.0354,-0.0281,-0.0194,-0.022,-0.0178,-0.0175,-0.0145,-0.0111,-0.0157,-0.013,-0.0219,-0.022,-0.022,-0.0238,-0.0216,-0.0216,-0.0216,-0.0216,0,0,-0.0594,-0.0629,-0.0628,-0.0615,-0.0598,-0.0535,-0.0486,-0.0397,-0.0318,-0.0203,-0.0154,-0.0142,-0.0168,-0.0196,-0.0201,-0.0186,-0.0197,-0.0194,-0.0092,-0.0196,-0.0196,-0.0225,-0.0254,0,0,0,0,0]}],[{"header":{"parameterUnit":"m.s-1","parameterCategory":2,"la1":30.2991,"la2":30.254,"lo1":-89.0895,"lo2":-89.0444,"dy":0.0017,"dx":0.0017,"nx":28,"ny":28,"refTime":"2025-12-11T09:00:00:Z","depth":"4","parameterNumber":2,"parameterNumberName":"U-component_of_CURRENTS"},"data":[0,0,0,0,0,0,0,0,0,0,0,0,0,0,0,0,0,0,0,0,0,0,0,0,0,0,0,0,0,0,0,0,0,0,0,0,0,0,0,0,0,0,0,0,0,0,0,0,0,0,0,0,0,0,0,0,0,0,-0.0528,-0.0528,0,-0.0554,-0.0554,-0.0554,-0.056,-0.056,-0.056,-0.056,-0.0589,-0.059,-0.0591,0,0,0,0,0,0,0,0,0,0,0,0,0,-0.0499,-0.0499,-0.0528,-0.0529,-0.0529,-0.0554,-0.0554,-0.0554,-0.056,-0.056,-0.056,-0.056,-0.0589,-0.059,-0.0591,0,0,0,0,0,0,0,0,0,0,0,0,0,-0.0514,-0.0499,-0.0528,-0.0537,-0.0538,-0.0553,-0.0554,-0.0554,-0.056,-0.056,-0.056,-0.056,-0.0589,-0.059,-0.0591,-0.0596,0,0,-0.0594,-0.0595,0,0,0,0,0,0,0,0,-0.0513,-0.0515,-0.0535,-0.0536,-0.0538,-0.0556,-0.0554,-0.0569,-0.056,-0.055,-0.056,-0.0561,-0.058,-0.0582,-0.0583,-0.0598,-0.0599,-0.0594,-0.0595,-0.0596,-0.0596,0,0,0,0,0,0,0,-0.0512,-0.0514,-0.0536,-0.0536,-0.0537,-0.0545,-0.0546,-0.0557,-0.0562,-0.055,-0.0552,-0.0558,-0.058,-0.0582,-0.0584,-0.0599,-0.0594,-0.0595,-0.0596,-0.0596,-0.0651,-0.0651,0,0,0,0,0,0,-0.0513,-0.0513,-0.0535,-0.0537,-0.0528,-0.0545,-0.0547,-0.0548,-0.0562,-0.0565,-0.0558,-0.0558,-0.058,-0.0583,-0.0585,-0.0602,-0.0595,-0.0597,-0.0597,-0.065,-0.0651,-0.0652,0,0,0,0,0,0,-0.0512,-0.0514,-0.0534,-0.0528,-0.0531,-0.0546,-0.0547,-0.0549,-0.0554,-0.0568,-0.0571,-0.0562,-0.058,-0.0583,-0.0602,-0.0603,-0.0597,-0.0598,-0.0649,-0.065,-0.0651,-0.063,0,0,0,0,0,0,-0.0511,-0.0514,-0.0517,-0.0527,-0.0531,-0.0545,-0.0547,-0.0549,-0.0559,-0.056,-0.0573,-0.0575,-0.0581,-0.0601,-0.0604,-0.0604,-0.0599,-0.0648,-0.0649,-0.0651,-0.063,-0.063,-0.0631,0,0,0,0,0,-0.051,-0.0512,-0.0517,-0.052,-0.0534,-0.0545,-0.0548,-0.0557,-0.0559,-0.0562,-0.0576,-0.0575,-0.0612,-0.0602,-0.0605,-0.0606,-0.0647,-0.0649,-0.0651,-0.063,-0.063,-0.0631,0,0,0,0,0,0,-0.0503,-0.0514,-0.0519,-0.0525,-0.0536,-0.0547,-0.0556,-0.0559,-0.0571,-0.0574,-0.0583,-0.0587,-0.0603,-0.0614,-0.0602,-0.0629,-0.0631,-0.0633,-0.0614,-0.0614,-0.0615,-0.0609,-0.06,0,0,0,0,0,-0.0503,-0.0508,-0.0519,-0.0527,-0.0533,-0.0545,-0.0552,-0.0556,-0.0568,-0.0573,-0.0585,-0.0601,-0.0612,-0.062,-0.0634,-0.0647,-0.0644,-0.0653,-0.0654,-0.0654,-0.0654,-0.066,-0.066,-0.0657,-0.0657,-0.0657,0,0,-0.0507,-0.0512,-0.0517,-0.0527,-0.0538,-0.0545,-0.0549,-0.056,-0.0566,-0.0575,-0.0592,-0.0603,-0.0617,-0.0631,-0.064,-0.064,-0.0649,-0.0656,-0.0656,-0.0656,-0.0661,-0.0661,-0.0661,-0.0659,-0.0658,-0.0658,0,0,-0.0514,-0.0518,-0.0525,-0.0532,-0.0546,-0.055,-0.0554,-0.0568,-0.0574,-0.0591,-0.0597,-0.0605,-0.0635,-0.0634,-0.064,-0.0654,-0.0651,-0.0667,-0.0664,-0.0669,-0.0669,-0.0669,-0.0642,-0.064,-0.0668,-0.0668,-0.0668,0,-0.0521,-0.0525,-0.053,-0.0537,-0.0542,-0.0552,-0.0558,-0.0566,-0.0585,-0.059,-0.0599,-0.0624,-0.0631,-0.0635,-0.0642,-0.0651,-0.0652,-0.0654,-0.0667,-0.0667,-0.0668,-0.0641,-0.0638,-0.0667,-0.0667,-0.0667,-0.0667,0,-0.0528,-0.0535,-0.0541,-0.0549,-0.0553,-0.0561,-0.057,-0.0578,-0.0588,-0.0597,-0.061,-0.0619,-0.0633,-0.0636,-0.0645,-0.065,-0.0647,-0.0664,-0.0659,-0.0666,-0.0638,-0.0635,-0.0666,-0.0666,-0.0666,-0.0667,0,0,-0.0534,-0.0545,-0.0548,-0.0551,-0.0558,-0.0561,-0.0569,-0.0577,-0.0586,-0.06,-0.0608,-0.0618,-0.0624,-0.0631,-0.0636,-0.064,-0.0629,-0.0658,-0.0658,-0.0618,-0.0626,-0.0572,-0.0565,-0.0657,-0.0657,-0.0657,-0.0597,0,-0.0541,-0.0548,-0.0552,-0.0561,-0.0562,-0.0568,-0.0573,-0.0579,-0.0594,-0.0608,-0.0606,-0.0623,-0.0622,-0.0632,-0.0632,-0.0639,-0.0628,-0.0643,-0.0637,-0.0636,-0.0577,-0.0562,-0.0658,-0.0595,-0.0594,-0.0594,-0.0594,0,-0.054,-0.0543,-0.0553,-0.0556,-0.0559,-0.0571,-0.0576,-0.0581,-0.0595,-0.0609,-0.0616,-0.0627,-0.0623,-0.0633,-0.062,-0.0636,-0.0629,-0.0627,-0.0625,-0.0583,-0.0579,-0.0595,-0.059,-0.059,-0.059,-0.0591,-0.0591,0,-0.0522,-0.054,-0.0546,-0.0549,-0.056,-0.057,-0.0574,-0.0585,-0.0589,-0.0614,-0.0626,-0.0625,-0.0628,-0.0625,-0.061,-0.0628,-0.0593,-0.0615,-0.0547,-0.0542,-0.0617,-0.0618,-0.0602,-0.0602,-0.0602,-0.0602,-0.0603,0,-0.0512,-0.0516,-0.0547,-0.055,-0.056,-0.0565,-0.058,-0.0587,-0.06,-0.0602,-0.0627,-0.0625,-0.0635,-0.0616,-0.0605,-0.0552,-0.0581,-0.0533,-0.0525,-0.0607,-0.0608,-0.0613,-0.0615,-0.06,-0.0601,-0.0601,-0.0602,0,-0.0485,-0.0505,-0.0517,-0.0544,-0.0553,-0.0558,-0.0577,-0.0585,-0.0604,-0.0608,-0.0615,-0.0623,-0.0601,-0.0583,-0.0567,-0.0534,-0.05,-0.0474,-0.0531,-0.0529,-0.0444,-0.0446,-0.0394,-0.0392,-0.039,-0.0388,-0.0387,0,-0.0473,-0.0477,-0.0512,-0.0522,-0.0541,-0.0557,-0.0563,-0.0582,-0.0587,-0.0595,-0.0589,-0.0581,-0.0579,-0.0493,-0.049,-0.0435,-0.0435,-0.0401,-0.045,-0.0427,-0.0424,-0.0429,-0.0434,-0.0384,-0.0383,-0.0383,-0.0382,0,-0.0449,-0.0469,-0.0478,-0.0501,-0.0523,-0.0529,-0.0542,-0.0541,-0.0554,-0.0582,-0.0551,-0.0525,-0.049,-0.0459,-0.0411,-0.0381,-0.0419,-0.0381,-0.0386,-0.0431,-0.0414,-0.0414,-0.0421,-0.0375,-0.0376,-0.0377,-0.0377,0,-0.0439,-0.044,-0.0461,-0.0472,-0.0491,-0.0487,-0.0502,-0.05,-0.05,-0.0514,-0.0498,-0.0485,-0.049,-0.0428,-0.0386,-0.0346,-0.035,-0.0337,-0.0344,-0.0352,-0.0365,-0.0338,-0.0258,0,0,0,0,0,-0.0423,-0.0413,-0.0426,-0.0431,-0.0445,-0.0452,-0.0476,-0.0492,-0.0513,-0.0478,-0.0485,-0.0451,-0.0394,-0.0384,-0.0332,-0.0358,-0.0346,-0.0295,-0.0336,-0.0337,-0.0345,-0.0364,0,0,0,0,0,0,-0.0412,-0.0418,-0.0413,-0.039,-0.0381,-0.0389,-0.0401,-0.0418,-0.0402,-0.0426,-0.0401,-0.0412,-0.0367,-0.0412,-0.0319,-0.0312,-0.0325,-0.0286,-0.0284,-0.0333,-0.034,-0.0346,-0.0369,0,0,0,0,0]},{"header":{"parameterUnit":"m.s-1","parameterCategory":2,"la1":30.2991,"la2":30.254,"lo1":-89.0895,"lo2":-89.0444,"dy":0.0017,"dx":0.0017,"nx":28,"ny":28,"refTime":"2025-12-11T09:00:00:Z","depth":"4","parameterNumber":3,"parameterNumberName":"V-component_of_CURRENTS"},"data":[0,0,0,0,0,0,0,0,0,0,0,0,0,0,0,0,0,0,0,0,0,0,0,0,0,0,0,0,0,0,0,0,0,0,0,0,0,0,0,0,0,0,0,0,0,0,0,0,0,0,0,0,0,0,0,0,0,0,-0.0193,-0.0194,0,-0.0245,-0.0245,-0.0246,-0.0283,-0.0284,-0.0284,-0.0284,-0.0321,-0.0321,-0.0322,0,0,0,0,0,0,0,0,0,0,0,0,0,-0.0118,-0.0119,-0.0193,-0.0194,-0.0194,-0.0245,-0.0245,-0.0246,-0.0283,-0.0284,-0.0284,-0.0285,-0.032,-0.0321,-0.0322,0,0,0,0,0,0,0,0,0,0,0,0,0,-0.0157,-0.0119,-0.0193,-0.022,-0.0223,-0.0244,-0.0245,-0.0246,-0.0283,-0.0284,-0.0284,-0.0285,-0.032,-0.0321,-0.0322,-0.0315,0,0,-0.0324,-0.0325,0,0,0,0,0,0,0,0,-0.0155,-0.0159,-0.0215,-0.0218,-0.0222,-0.0259,-0.0232,-0.0268,-0.0283,-0.0259,-0.0284,-0.0285,-0.0299,-0.0301,-0.0308,-0.0316,-0.0318,-0.0325,-0.0325,-0.0325,-0.0326,0,0,0,0,0,0,0,-0.0152,-0.0157,-0.0212,-0.0216,-0.022,-0.0226,-0.0233,-0.0239,-0.0274,-0.0261,-0.0264,-0.0272,-0.03,-0.0308,-0.031,-0.0318,-0.0325,-0.0325,-0.0326,-0.0326,-0.0369,-0.037,0,0,0,0,0,0,-0.0148,-0.0155,-0.0211,-0.0214,-0.019,-0.0227,-0.0234,-0.0245,-0.0274,-0.0279,-0.0271,-0.0273,-0.0306,-0.0309,-0.0311,-0.0342,-0.0325,-0.0326,-0.0327,-0.0368,-0.0369,-0.037,0,0,0,0,0,0,-0.0146,-0.0152,-0.0209,-0.0186,-0.0194,-0.0228,-0.024,-0.0246,-0.0264,-0.0282,-0.0287,-0.0284,-0.0306,-0.031,-0.033,-0.0343,-0.0327,-0.0327,-0.0368,-0.0369,-0.0369,-0.0381,0,0,0,0,0,0,-0.0143,-0.0151,-0.0158,-0.0186,-0.0195,-0.0227,-0.024,-0.0247,-0.0267,-0.0271,-0.0294,-0.0298,-0.0307,-0.0328,-0.033,-0.0344,-0.0328,-0.0367,-0.0368,-0.0369,-0.038,-0.0382,-0.0384,0,0,0,0,0,-0.0141,-0.0149,-0.0158,-0.0165,-0.0204,-0.0227,-0.0232,-0.0258,-0.0268,-0.0276,-0.0295,-0.0298,-0.0337,-0.0329,-0.0332,-0.0345,-0.0366,-0.0368,-0.0369,-0.0379,-0.0381,-0.0384,0,0,0,0,0,0,-0.0125,-0.0155,-0.0165,-0.0184,-0.0206,-0.0234,-0.0244,-0.026,-0.0282,-0.0287,-0.0303,-0.0308,-0.0331,-0.0335,-0.0326,-0.0362,-0.0353,-0.0355,-0.036,-0.0362,-0.0365,-0.0372,-0.0329,0,0,0,0,0,-0.0122,-0.0137,-0.0165,-0.0181,-0.019,-0.0217,-0.023,-0.0248,-0.027,-0.0281,-0.0298,-0.0317,-0.0337,-0.0347,-0.0361,-0.0376,-0.0371,-0.0388,-0.039,-0.0392,-0.04,-0.0397,-0.0399,-0.0374,-0.0374,-0.0374,0,0,-0.0125,-0.014,-0.0151,-0.0178,-0.0196,-0.0222,-0.0226,-0.0249,-0.0275,-0.028,-0.0315,-0.0324,-0.0342,-0.0366,-0.0376,-0.0372,-0.0396,-0.0394,-0.0395,-0.0403,-0.0399,-0.0401,-0.0403,-0.0375,-0.0375,-0.0375,0,0,-0.0139,-0.0145,-0.0167,-0.0183,-0.021,-0.0224,-0.0232,-0.0261,-0.0278,-0.0306,-0.0321,-0.0337,-0.0364,-0.0381,-0.0394,-0.0415,-0.0407,-0.042,-0.0438,-0.0434,-0.0436,-0.0438,-0.0428,-0.0428,-0.0421,-0.0421,-0.0422,0,-0.0144,-0.0175,-0.0176,-0.0201,-0.0222,-0.0228,-0.0261,-0.0275,-0.0309,-0.0322,-0.032,-0.0362,-0.0374,-0.0407,-0.0421,-0.042,-0.0414,-0.0425,-0.0436,-0.0438,-0.0439,-0.0429,-0.0429,-0.0422,-0.0422,-0.0422,-0.0422,0,-0.0182,-0.0206,-0.0216,-0.0252,-0.0268,-0.0293,-0.0313,-0.0324,-0.0337,-0.0354,-0.0381,-0.0391,-0.0416,-0.0421,-0.0432,-0.0453,-0.0444,-0.0437,-0.0427,-0.0442,-0.043,-0.0431,-0.0423,-0.0423,-0.0423,-0.0423,0,0,-0.0205,-0.0239,-0.0246,-0.0266,-0.0299,-0.0313,-0.0344,-0.0374,-0.039,-0.0405,-0.0429,-0.0458,-0.0452,-0.0467,-0.047,-0.0471,-0.0474,-0.0463,-0.0463,-0.0449,-0.0462,-0.0427,-0.0423,-0.0467,-0.0467,-0.0468,-0.0447,0,-0.0243,-0.0287,-0.0303,-0.0349,-0.0372,-0.0381,-0.0409,-0.0428,-0.0436,-0.0451,-0.0454,-0.0475,-0.0473,-0.048,-0.0482,-0.0477,-0.0477,-0.048,-0.0454,-0.0453,-0.0416,-0.0424,-0.0469,-0.0447,-0.0447,-0.0447,-0.0447,0,-0.0288,-0.0306,-0.0358,-0.039,-0.0402,-0.043,-0.0455,-0.0482,-0.0494,-0.0498,-0.0507,-0.0505,-0.0517,-0.0504,-0.0499,-0.0501,-0.049,-0.0479,-0.0477,-0.0443,-0.0419,-0.0431,-0.0447,-0.0447,-0.0447,-0.0447,-0.0447,0,-0.0299,-0.0347,-0.0385,-0.04,-0.0437,-0.046,-0.0479,-0.0498,-0.0509,-0.0525,-0.0524,-0.0534,-0.0531,-0.0522,-0.0499,-0.0502,-0.0479,-0.0475,-0.0433,-0.043,-0.0462,-0.046,-0.0473,-0.0473,-0.0473,-0.0473,-0.0474,0,-0.0335,-0.0362,-0.039,-0.0411,-0.0447,-0.0471,-0.0505,-0.0519,-0.0531,-0.0539,-0.0548,-0.0541,-0.0536,-0.0518,-0.0502,-0.0462,-0.0479,-0.0439,-0.0424,-0.0466,-0.0466,-0.0461,-0.046,-0.0473,-0.0473,-0.0473,-0.0473,0,-0.0345,-0.037,-0.0407,-0.0445,-0.0458,-0.0481,-0.0513,-0.0528,-0.0541,-0.0546,-0.055,-0.0545,-0.0518,-0.0499,-0.0475,-0.0458,-0.0429,-0.0412,-0.0454,-0.0441,-0.0382,-0.0382,-0.0366,-0.0364,-0.0363,-0.0362,-0.0361,0,-0.0354,-0.0376,-0.0421,-0.044,-0.0461,-0.0492,-0.0514,-0.0534,-0.0538,-0.0539,-0.0535,-0.0515,-0.0505,-0.044,-0.0429,-0.0388,-0.0384,-0.0377,-0.0391,-0.0385,-0.0372,-0.0374,-0.0375,-0.036,-0.0359,-0.0359,-0.0359,0,-0.0362,-0.0383,-0.0408,-0.0442,-0.0472,-0.05,-0.0524,-0.0521,-0.0535,-0.0539,-0.0506,-0.0481,-0.0445,-0.0414,-0.0381,-0.0356,-0.0388,-0.0365,-0.0368,-0.0381,-0.0378,-0.0366,-0.0369,-0.0355,-0.0355,-0.0356,-0.0356,0,-0.0363,-0.0375,-0.0408,-0.0437,-0.0474,-0.0501,-0.0516,-0.0512,-0.0514,-0.05,-0.0485,-0.0457,-0.0443,-0.0395,-0.0365,-0.0334,-0.0331,-0.0336,-0.034,-0.0344,-0.0345,-0.0338,-0.0292,0,0,0,0,0,-0.0355,-0.0367,-0.0396,-0.0432,-0.047,-0.0493,-0.0517,-0.0526,-0.0524,-0.0491,-0.0483,-0.0443,-0.0392,-0.0377,-0.0336,-0.0353,-0.0337,-0.0308,-0.0348,-0.0332,-0.0337,-0.0338,0,0,0,0,0,0,-0.0351,-0.0374,-0.0388,-0.0422,-0.0446,-0.0486,-0.0507,-0.0511,-0.0486,-0.0476,-0.0443,-0.043,-0.0378,-0.0402,-0.0331,-0.0324,-0.0345,-0.0285,-0.0284,-0.033,-0.0334,-0.0338,-0.034,0,0,0,0,0]}]]